Regional Weather Roundup
Issued by NWS

Home | Current Version | Previous Version | Text Only | Print | Product List | Glossary Off
Versions: 1 2 3 4 5 6 7 8 9 10 11 12 13 14 15 16 17 18 19 20 21 22 23 24 25 26 27 28 29 30 31 32 33 34 35 36 37 38 39 40 41 42 43 44 45 46 47 48 49 50

000
ASUS43 KIND 052159
RWRIN

WEATHER ROUNDUP FOR INDIANA
NATIONAL WEATHER SERVICE INDIANAPOLIS IN
600 PM EDT SUN JUL 05 2015

NOTE: "FAIR" INDICATES FEW OR NO CLOUDS BELOW 12,000 FEET WITH NO
SIGNIFICANT WEATHER AND/OR OBSTRUCTIONS TO VISIBILITY.

* - STATION DOES NOT REPORT WEATHER SUCH AS PRECIPITATION OR FOG.

+ - STATION NOT QUALITY CONTROLLED BY THE NATIONAL WEATHER SERVICE.
    USE DATA WITH CAUTION...ESPECIALLY DEWPOINT AND RELATIVE
    HUMIDITY OBSERVATIONS.

INZ001>003-010>013-019-020-052300-
NORTHWEST INDIANA

CITY           SKY/WX    TMP DP  RH WIND       PRES   REMARKS
GARY /AIRPORT/ MOSUNNY  N/A N/A N/A SE7       30.05F
RENSSELAER +   SUNNY     81  59  47 CALM      30.06S

$$

LMZ046-743>745-052300-
SOUTHERN LAKE MICHIGAN

STATION/POSITION TIME  TEMP    WIND        PRES    WAVE
                       AIR SEA DIR/SP/G            HT
                 (UTC) (F)     (DEG/KT/KT) (MB)    (FT)
BURNS HARBOR     2100   74      70/  6/  7 1018.3F
MICHIGAN CITY    2100   71      20/  9/ 10   N/A
5NW MICH CITY    2100   70 69   70/  4/  6   N/A     1

$$

INZ004-005-014>016-021>024-052300-
NORTH CENTRAL INDIANA

CITY           SKY/WX    TMP DP  RH WIND       PRES   REMARKS
ELKHART        SUNNY     82  59  44 SE8       30.07F
GOSHEN         SUNNY     82  61  48 SE7       30.07F
SOUTH BEND     SUNNY     82  59  45 S8        30.07F

$$

INZ006>009-017-018-025>027-052300-
NORTHEAST INDIANA

CITY           SKY/WX    TMP DP  RH WIND       PRES   REMARKS
ANGOLA *+        N/A     82  77  83 VRB5      30.09S
FORT WAYNE     PTSUNNY   79  61  53 SE5       30.08F

$$

INZ028-029-035-036-043>045-051>053-052300-
WEST CENTRAL INDIANA

CITY           SKY/WX    TMP DP  RH WIND       PRES   REMARKS
CRAWFORDSVL +  SUNNY     80  56  44 W3        30.06F
GREENCASTLE +  MOSUNNY   81  61  50 SE5       30.07F
LAFAYETTE      SUNNY     81  62  52 S6        30.05F
TERRE HAUTE    SUNNY     82  65  56 SE3       30.04F

$$

INZ030>032-037>040-046>048-054>057-064-065-052300-
CENTRAL INDIANA

CITY           SKY/WX    TMP DP  RH WIND       PRES   REMARKS
GREENWOOD *+   PTSUNNY   77  59  53 E3        30.08
INDIANAPOLIS   PTSUNNY   79  63  57 SE9       30.06F
-EAGLE CREEK   PTSUNNY   80  62  54 S7        30.06F
KOKOMO *+      MOSUNNY   81  61  50 SE3       30.06F
MT COMFORT *+  PTSUNNY   77  54  44 CALM      30.08F
SHELBYVILLE    PTSUNNY   81  63  54 SE5       30.06F

$$

INZ033-034-041-042-049-050-058-059-052300-
EAST CENTRAL INDIANA

CITY           SKY/WX    TMP DP  RH WIND       PRES   REMARKS
MUNCIE         PTSUNNY   80  59  48 CALM      30.07F

$$

INZ060-061-067>069-081>083-085>088-052300-
SOUTHWEST INDIANA

CITY           SKY/WX    TMP DP  RH WIND       PRES   REMARKS
EVANSVILLE     MOSUNNY   84  67  56 VRB3      30.04F HAZE
HUNTINGBURG *+ PTSUNNY   81  68  65 SW3       30.06S

$$

INZ062-063-066-070>080-084-089>092-052300-
SOUTH CENTRAL AND SOUTHEAST INDIANA

CITY           SKY/WX    TMP DP  RH WIND       PRES   REMARKS
BLOOMINGTON    PTSUNNY   79  65  62 S5        30.07S
MADISON *+     CLOUDY    77  57  50 SE3       30.10S
SEYMOUR +      PTSUNNY   81  66  61 S6        30.07S

$$



USA.gov is the U.S. government's official web portal to all federal, state and local government web resources and services.